SCP
0 0 0 0 0 0 0 0 0 0 0 0 0 0 0 0 0 0 0 0 0 0 0 0 0 0 0 0 0 0 0 0 0 0 0 0 0 0 0 0 0 0 0
0 0 0 0 0 0 0 0 0 0 0 0 0 0 0 0 0 0 0 0 0 0 0 0 0 0 0 0 0 0 0 0 0 0 0 0 0 0 0 0 0 0 0
0 0 0 0 0 0 0 0 0 0 0 0 0 0 0 0 0 0 0 0 0 0 0 0 0 0 0 0 0 0 0 0 0 0 0 0 0 0 0 0 0 0 0
0 0 0 0 0 0 0 0 0 0 0 0 0 0 0 0 0 0 0 0 0 0 0 0 0 0 0 0 0 0 0 0 0 0 0 0 0 0 0 0 0 0 0
0 0 0 0 0 0 0 0 0 0 0 0 0 0 0 0 0 0 0 0 0 0 0 0 0 0 0 0 0 0 0 0 0 0 0 0 0 0 0 0 0 0 0
0 0 0 0 0 0 0 0 0 0 0 0 0 0 0 0 0 0 0 0 0 0 0 0 0 0 0 0 0 0 0 0 0 0 0 0 0 0 0 0 0 0 0
0 0 0 0 0 0 0 0 0 0 0 0 0 0 0 0 0 0 0 0 0 0 0 0 0 0 0 0 0 0 0 0 0 0 0 0 0 0 0 0 0 0 0
1 0 0 0 0 0 0 0 0 0 0 0 0 0 0 0 0 0 0 0 0 0 0 0 0 0 0 0 0 0 0 0 0 0 0 0 0 0 0 0 0 0 0
1 1 0 0 0 0 0 0 0 0 0 0 0 0 0 0 0 0 0 0 0 0 0 0 0 0 0 0 0 0 0 0 0 0 0 0 0 0 0 0 0 0 0
1 1 0 0 0 0 0 0 0 0 0 0 0 0 0 0 0 0 0 0 0 0 0 0 0 0 0 0 0 0 0 0 0 0 0 0 0 0 0 0 0 0 0
1 1 1 0 0 0 0 0 0 0 0 0 0 0 -0 -0 0 0 0 0 0 0 0 0 0 0 0 0 0 0 0 0 0 0 0 0 0 0 0 0 0 0 0
1 1 1 1 0 0 0 0 0 0 0 0 0 0 -0 -0 0 0 0 0 0 0 0 0 0 0 0 0 0 0 0 0 0 0 0 0 0 0 0 0 0 0 0
1 1 1 1 1 0 0 0 0 0 0 0 0 0 0 0 0 0 0 0 0 0 0 0 0 0 0 0 0 0 0 0 0 0 0 0 0 0 0 0 0 0 0
1 1 1 1 1 1 0 0 0 0 0 0 0 0 0 0 0 0 0 0 0 0 0 0 0 0 0 0 0 0 0 0 0 0 0 0 0 0 0 0 0 0 0
1 1 1 1 1 1 0 0 0 0 0 0 0 0 0 0 0 0 0 0 0 0 0 0 0 0 0 0 0 0 0 0 0 0 0 0 0 0 0 0 0 0 0
1 1 1 1 1 1 0 0 0 0 0 0 0 0 0 0 0 0 0 0 0 0 0 0 0 0 0 0 0 0 0 0 0 0 0 0 0 0 0 0 0 0 0
2 1 1 1 1 1 0 0 0 0 0 0 0 0 0 0 0 0 0 0 0 0 0 0 0 0 0 0 0 0 0 0 0 0 0 0 0 0 0 0 0 0 0
2 2 1 1 1 1 1 0 0 0 0 0 0 0 0 0 0 0 0 0 0 0 0 0 0 0 0 0 0 0 0 0 0 0 0 0 0 0 0 0 0 0 0
2 2 1 1 1 1 1 0 0 0 0 0 1 1 1 0 0 0 0 0 0 0 0 0 0 0 0 0 0 0 0 0 0 0 0 0 0 0 0 0 0 0 0
2 2 2 1 1 1 1 1 0 0 0 0 1 1 1 1 0 0 0 0 0 0 0 0 0 0 0 0 0 0 0 0 0 0 0 0 0 0 0 0 0 0 0
2 2 2 2 1 1 1 1 1 1 0 0 1 1 1 1 0 0 0 0 0 0 0 0 0 0 0 0 0 0 0 0 0 0 0 0 0 0 0 0 0 0 0
2 2 2 2 2 1 1 1 1 1 1 0 1 1 1 1 1 0 0 0 0 0 0 0 0 0 0 0 0 0 0 0 0 0 0 0 0 0 0 0 0 0 0
2 2 2 2 2 2 1 1 1 1 1 1 1 1 1 1 1 1 0 0 0 0 0 0 0 0 0 0 0 0 0 0 0 0 0 0 0 0 0 0 0 0 0
2 2 2 2 2 2 1 1 1 1 1 1 1 1 1 1 1 1 1 1 1 0 0 0 0 0 0 0 0 0 0 0 0 0 0 0 0 0 0 0 0 0 0
2 2 2 2 2 2 1 1 1 1 1 1 1 1 1 1 1 1 1 1 1 1 0 0 0 0 0 0 0 0 0 0 0 0 0 0 0 0 0 0 0 0 0
2 2 2 2 2 2 1 1 1 1 1 0 0 1 1 1 1 1 1 1 1 1 1 1 1 1 0 0 0 0 0 0 0 0 0 0 0 0 0 0 0 0 0
Wind_Speed
13 13 13 13 13 13 13 13 12 13 12 12 12 11 12 12 12 12 12 12 12 12 11 10 10 11 11 12 13 13 13 14 15 16 16 15 15 14 13 14 15 13 16
17 14 14 13 14 13 13 13 13 12 12 12 11 11 11 11 11 11 11 11 11 11 11 10 10 11 11 12 12 12 13 13 14 15 15 14 14 13 12 13 15 11 15
17 15 14 13 14 13 13 13 12 12 12 11 11 10 10 10 10 10 11 11 11 11 10 10 10 10 11 11 11 11 11 11 12 14 14 10 10 14 15 15 16 15 15
18 15 14 14 14 13 13 12 12 12 11 11 10 10 10 9 10 10 10 10 10 11 10 10 10 11 11 11 11 10 10 10 10 10 6 8 9 13 14 14 14 14 14
17 16 15 15 14 13 13 12 12 11 11 10 10 10 9 9 9 9 9 10 10 10 10 11 11 11 10 10 9 8 8 7 7 5 8 9 8 12 13 13 13 14 13
18 17 15 15 15 14 13 12 12 11 11 10 10 9 9 9 9 9 9 10 10 10 10 11 11 11 10 9 8 6 5 4 4 5 8 8 8 11 13 13 13 13 13
19 17 16 15 14 13 12 12 12 11 11 10 10 9 9 9 9 9 9 10 10 10 11 11 10 10 9 8 6 4 2 2 2 6 8 8 8 11 12 12 12 13 13
19 18 15 15 14 13 12 12 11 11 10 10 10 9 9 8 9 9 9 9 10 10 10 10 10 10 9 7 5 2 1 2 4 9 10 9 10 11 12 12 12 12 12
18 17 14 14 13 13 12 12 11 10 10 10 9 9 9 9 9 9 9 9 9 10 10 10 10 9 8 6 3 1 2 2 2 6 10 8 10 12 12 12 12 12 11
15 15 14 14 12 11 11 11 11 10 10 9 9 9 9 9 9 9 9 8 9 9 9 10 9 8 7 4 2 2 3 4 2 8 7 9 12 12 12 11 11 11 10
12 11 12 13 12 12 12 12 11 10 9 9 8 9 8 6 7 7 9 9 9 9 9 9 9 8 6 4 3 3 4 1 5 7 7 12 12 12 11 11 10 10 10
11 11 9 11 10 10 9 9 7 7 7 6 5 6 4 3 4 7 9 9 8 8 8 8 8 7 6 4 4 4 2 2 4 7 8 14 12 12 11 10 10 9 9
11 9 9 9 8 9 7 6 4 4 5 5 5 4 3 3 4 6 4 6 5 7 5 6 5 4 3 2 2 2 1 2 3 6 8 12 11 11 10 9 9 8 9
11 10 8 8 6 6 6 5 4 4 4 4 4 4 3 2 2 4 3 4 4 3 3 3 3 2 2 2 2 1 1 2 4 6 7 12 11 10 10 9 9 8 8
10 9 8 7 6 5 4 2 4 3 4 4 4 3 3 3 3 3 2 2 2 3 3 2 2 2 2 2 2 2 2 2 5 6 6 11 11 10 10 10 9 9 8
9 8 8 8 7 6 4 1 1 2 3 4 4 5 3 2 4 3 3 2 2 2 2 2 4 2 1 1 1 2 2 3 4 6 7 8 10 10 10 10 10 9 9
9 8 8 8 8 7 5 4 3 2 3 3 4 4 3 3 4 3 3 3 2 3 3 1 3 3 3 3 2 2 2 2 3 5 7 6 7 9 10 10 10 10 9
9 9 8 9 10 8 5 4 3 2 2 2 3 4 4 4 4 3 3 3 3 3 3 2 2 2 2 2 2 2 2 2 3 4 5 6 6 6 9 11 11 10 10
9 9 8 7 9 9 7 4 3 1 0 1 2 3 4 4 5 3 2 2 3 2 2 3 3 2 2 2 2 2 3 3 3 4 4 5 6 6 6 10 12 11 11
9 9 8 7 7 7 6 4 2 2 2 2 2 3 4 4 4 3 3 3 3 2 2 1 2 1 1 1 1 1 2 3 3 3 4 4 4 6 7 8 7 8 11
10 9 9 9 8 6 5 5 4 3 3 2 3 4 4 4 4 3 2 4 2 2 2 3 2 3 2 2 1 1 1 2 3 3 3 3 4 5 6 8 6 5 6
10 9 9 9 9 8 6 4 3 3 3 3 2 4 4 4 4 5 3 3 3 2 2 2 2 1 2 3 2 1 1 1 1 3 3 4 4 4 5 8 7 6 5
11 10 9 9 9 8 7 5 3 2 2 3 3 3 5 5 5 4 5 3 3 4 4 4 4 3 2 2 2 2 2 2 1 1 2 3 4 3 3 4 6 6 6
11 10 8 8 8 7 7 6 7 5 5 5 3 4 4 5 5 4 4 4 3 3 4 5 5 4 3 3 2 2 2 2 2 1 1 2 4 4 3 4 4 5 5
10 10 9 8 8 7 7 7 6 5 4 3 3 4 4 4 5 5 5 4 4 3 3 4 3 4 3 3 2 2 3 3 3 3 2 2 1 2 3 2 2 3 4
9 9 9 8 8 8 8 7 7 6 5 4 4 4 4 3 4 6 6 5 4 4 4 3 3 4 3 3 3 3 2 2 3 3 3 3 2 2 2 2 2 3 3
Wind_Direction
114 114 110 107 107 109 110 110 109 107 104 102 100 97 94 92 92 92 94 95 97 98 99 98 98 96 93 92 92 94 95 97 100 102 102 102 101 100 101 107 103 97 100
117 116 112 109 110 111 111 112 111 110 108 104 103 101 99 98 97 97 98 99 99 98 99 100 101 101 100 101 100 102 103 106 110 111 108 102 98 94 93 93 95 104 104
118 119 116 110 111 112 111 112 113 113 111 108 106 104 104 103 102 101 101 102 102 102 101 102 104 106 105 107 109 109 112 118 124 124 118 106 98 94 95 96 101 106 104
124 126 116 115 114 114 113 113 114 113 112 110 108 107 107 107 107 104 103 105 105 105 105 105 105 106 108 110 113 118 123 131 137 142 121 110 104 102 103 103 105 106 106
119 115 117 120 117 116 116 116 115 114 114 113 111 109 108 107 108 109 108 109 107 106 107 108 107 107 110 114 118 125 135 144 153 139 97 94 97 113 111 110 110 109 109
122 120 121 123 120 119 118 116 116 116 116 115 113 111 110 109 108 109 110 111 111 110 109 109 109 108 111 116 123 132 146 162 167 115 110 109 108 115 114 113 112 110 110
124 123 126 126 124 123 122 121 119 118 116 116 115 113 112 112 111 111 113 112 115 112 110 111 111 111 114 119 126 138 162 188 167 114 106 102 112 119 116 114 114 112 111
124 123 127 129 128 128 127 125 124 122 119 117 115 115 115 114 113 113 117 116 116 115 114 114 114 116 117 120 126 138 189 260 124 113 109 109 121 121 119 118 118 116 114
124 128 136 138 134 133 132 131 129 126 124 122 121 122 122 121 119 119 119 120 119 119 119 119 119 121 122 126 139 197 296 326 110 116 115 116 126 125 124 123 122 121 119
126 133 143 145 143 146 141 139 135 132 131 131 132 134 134 133 132 131 129 123 125 126 126 127 126 129 132 143 174 259 309 317 130 109 109 121 128 129 128 127 126 127 126
129 137 146 144 152 153 148 144 145 143 144 146 150 153 155 159 147 150 123 131 133 135 135 136 139 143 150 170 206 257 287 224 102 98 104 125 131 131 131 132 133 132 132
143 144 143 146 153 151 144 146 157 160 159 174 162 169 176 162 142 128 131 139 144 145 147 151 156 165 182 179 196 227 252 154 117 109 119 134 135 135 135 137 139 139 138
150 146 147 147 148 141 137 153 155 153 160 173 164 167 163 151 139 131 147 149 158 164 169 153 175 198 202 174 167 196 212 86 99 107 129 137 140 141 141 142 144 144 144
152 150 151 139 132 125 130 140 153 157 165 161 150 171 152 155 147 136 149 161 165 166 158 166 190 188 185 160 147 157 126 108 107 112 138 144 146 146 148 150 150 151 149
155 154 149 132 121 113 107 140 161 160 160 150 148 174 167 162 141 130 139 148 164 147 160 180 153 143 158 150 158 140 120 106 117 122 135 152 152 154 158 160 159 159 158
155 154 145 138 133 133 141 173 180 168 151 153 157 165 183 154 135 142 144 168 171 153 156 163 144 151 192 160 147 133 146 127 120 132 142 154 160 162 166 168 169 168 168
153 155 156 155 147 153 166 189 196 208 170 158 149 153 166 156 140 148 147 181 170 147 138 152 151 160 193 176 166 174 167 145 145 140 147 156 165 173 177 177 177 178 178
156 159 171 172 158 164 176 194 211 215 168 143 146 149 163 159 155 161 168 182 161 161 163 167 182 176 180 176 174 187 158 151 155 164 167 166 167 173 182 185 184 186 189
157 161 171 169 160 167 176 185 215 206 180 147 148 154 168 184 167 171 181 141 170 173 175 189 161 167 174 195 194 180 170 172 173 188 184 175 170 165 171 184 188 189 195
160 164 170 172 165 165 168 175 200 211 198 197 177 155 167 187 175 184 176 170 201 181 166 152 130 152 165 206 238 169 195 178 181 189 188 182 175 176 174 171 180 194 202
167 170 172 178 170 167 171 178 184 195 206 204 189 171 183 194 175 195 211 162 198 183 174 173 169 182 209 199 180 177 243 204 183 182 188 181 188 189 169 164 178 184 195
172 176 175 179 175 178 178 173 177 184 207 212 196 172 193 197 191 196 205 192 185 178 187 195 188 205 219 200 186 174 202 287 262 210 183 183 191 185 180 174 176 178 183
177 181 182 180 178 183 173 170 179 181 224 212 188 184 201 197 201 215 187 208 186 189 188 197 198 208 225 225 205 180 180 204 214 259 204 185 177 178 184 171 180 181 183
178 178 174 173 176 177 178 186 188 196 210 212 197 189 198 205 203 206 201 205 206 215 186 199 199 204 213 232 228 227 213 165 168 200 250 201 186 189 185 189 184 169 170
174 171 173 171 173 177 186 190 195 210 218 215 209 196 198 205 207 212 206 200 204 223 215 216 179 199 213 229 233 227 224 200 202 184 204 217 187 187 186 191 157 147 155
167 167 167 167 172 179 188 194 201 213 217 212 212 205 202 209 208 214 212 197 207 216 220 209 191 205 219 229 250 254 228 219 210 199 196 193 194 202 170 143 141 136 143